Flag for Philippines Weather past 2 weeks in Angeles, Philippines

Now
75 °F

Mostly cloudy.


Feels Like: 74 °F
Forecast: 74 / 85 °F
Wind: 5 mph from Northwest

Location: Clarkfield Pampanga International Airport

Current Time: Aug 30, 2014 at 4:55:39 AM

Latest Report: Aug 30, 2014 at 2:00 AM


Visibility: 6 mi

Pressure: 29.86 "Hg

Humidity: 94%

Dew point: 73 °F

Location of AngelesLocation

Historic Weather in Angeles — Graph

°F

Angeles temperature yesterday

Maximum temperature yesterday: 82 °F (at 1:00 PM)
Minimum temperature yesterday: 73 °F (at 1:00 AM)
Average temperature yesterday: 77 °F

Past Weeks' High & Low Weather Summary

 TemperatureHumidityPressure
High93 °F (Aug 15, 3:00 PM)100% (Aug 15, 2:00 AM)29.98 "Hg (Aug 15, 2:00 AM)
Low72 °F (Aug 28, 2:00 PM)49% (Aug 15, 3:00 PM)29.74 "Hg (Aug 26, 4:00 PM)
Average80 °F87%29.86 "Hg
* Reported Aug 15 2:00 AM — Aug 30 2:00 AM, Angeles, Weather by CustomWeather, © 2014

Note: Actual official high and low records may vary slightly from our data, if they occured in-between our weather recording intervals... More about our weather records

Advertising

Angeles weather history for previous 24 hours

 ConditionsComfort  
Time TempWeatherWind HumidityBarometerVisibility
2:00 AM
Aug 30
75 °FMostly cloudy.5 mph94%29.86 "Hg6 mi
1:00 AM75 °FMostly cloudy.5 mph100%29.89 "Hg6 mi
12:00 AM75 °FLight rain. Mostly cloudy.5 mph100%29.89 "Hg5 mi
11:00 PM
Aug 29
75 °FLight rain. Mostly cloudy.7 mph100%29.92 "Hg5 mi
10:00 PM75 °FLight rain. Mostly cloudy.2 mph94%29.92 "Hg5 mi
9:00 PM75 °FLight rain. Mostly cloudy.2 mph94%29.92 "Hg5 mi
8:00 PM77 °FSprinkles. Mostly cloudy.5 mph94%29.89 "HgN/A
7:00 PM79 °FMostly cloudy.2 mph89%29.86 "HgN/A
6:00 PM79 °FOvercast.2 mph89%29.83 "HgN/A
5:00 PM81 °FPartly sunny.5 mph84%29.83 "HgN/A
4:00 PM81 °FWarm.9 mph79%29.83 "HgN/A
3:00 PM81 °FWarm.9 mph84%29.83 "HgN/A
2:00 PM82 °FBroken clouds.8 mph74%29.83 "HgN/A
1:00 PM82 °FBroken clouds.6 mph74%29.83 "HgN/A
12:00 PM81 °FBroken clouds.8 mph79%29.86 "HgN/A
11:00 AM79 °FBroken clouds.5 mph84%29.92 "HgN/A
10:00 AM79 °FBroken clouds.9 mph84%29.89 "HgN/A
8:00 AM77 °FBroken clouds.7 mph89%29.89 "Hg6 mi
7:00 AM73 °FBroken clouds.7 mph100%29.86 "Hg6 mi
6:00 AM73 °FBroken clouds.6 mph100%29.86 "Hg6 mi
5:00 AM73 °FPartly cloudy.7 mph100%29.86 "Hg6 mi
4:00 AM73 °FPartly cloudy.9 mph100%29.86 "Hg6 mi
Weather by CustomWeather, © 2014

See weather overviewHow to use our weather pages